Frederick, OK

10:05 PM CDT on September 19, 2017 (GMT -0500)
Frederick Municipal

Weather History for KFDR - May, 2014

Change the Weather History Date:

Saturday, May 17, 2014

  Actual Average (KLTS) Record (KLTS)
Temperature  
Mean Temperature 68 °F -  
Max Temperature 81 °F 82 °F 98 °F (2000)
Min Temperature 57 °F 59 °F 48 °F (2006)
Cooling Degree Days 3    
Growing Degree Days 18 (Base 50)    
Moisture  
Dew Point 49 °F    
Average Humidity 53    
Maximum Humidity 72    
Minimum Humidity 35    
Precipitation  
Precipitation 0.00 in - - ()
Sea Level Pressure  
Sea Level Pressure 29.93 in    
Wind  
Wind Speed 19 mph (ENE)    
Max Wind Speed 26 mph    
Max Gust Speed 40 mph    
Visibility 10 miles    
Events      
Averages and records for this station are not official NWS values.
T = Trace of Precipitation, MM = Missing Value Source: NWS Daily Summary

Daily Weather History Graph

Daily Weather History Graph

Search for Another Location

Airport or City:

Trip Planner

Search our weather history database for the weather conditions in past years. The results will help you decide how hot, cold, wet, or windy it might be!

Date:

Astronomy

May. 17, 2014 Rise Set
Actual Time 6:32 AM CDT 8:32 PM CDT
Civil Twilight 6:04 AM CDT 9:00 PM CDT
Nautical Twilight 5:30 AM CDT 9:34 PM CDT
Astronomical Twilight 4:54 AM CDT 10:11 PM CDT
Moon 11:35 PM CDT (5/17) 9:16 AM CDT (5/17)
Length of Visible Light 14h 56m
Length of Day
14h 00m
Waning Gibbous, 89% of the Moon is Illuminated
May 17
Waning Gibbous
May 21
Last Quarter
May 28
New
Jun 5
First Quarter
Jun 12
Full

Hourly Weather History & Observations

Time (CDT) Temp. Dew Point Humidity Pressure Visibility Wind Dir Wind Speed Gust Speed Precip Events Conditions
12:39 AM 66.2 °F 51.8 °F 60% 29.83 in 10.0 mi NNE 25.3 mph 31.1 mph N/A   Clear
12:53 AM 69.1 °F 50.0 °F 51% 29.82 in 10.0 mi NNE 21.9 mph 40.3 mph N/A   Clear
1:53 AM 64.9 °F 51.1 °F 61% 29.86 in 10.0 mi NE 24.2 mph 34.5 mph N/A   Clear
2:53 AM 61.0 °F 45.0 °F 56% 29.90 in 10.0 mi NE 26.5 mph 34.5 mph N/A   Clear
3:53 AM 60.1 °F 44.1 °F 55% 29.90 in 10.0 mi ENE 19.6 mph 26.5 mph N/A   Clear
4:53 AM 59.0 °F 45.0 °F 60% 29.90 in 10.0 mi ENE 18.4 mph - N/A   Clear
5:53 AM 57.9 °F 45.0 °F 62% 29.91 in 10.0 mi ENE 12.7 mph - N/A   Clear
6:53 AM 57.9 °F 45.0 °F 62% 29.91 in 10.0 mi ESE 15.0 mph - N/A   Clear
7:53 AM 60.1 °F 46.0 °F 60% 29.92 in 10.0 mi East 11.5 mph - N/A   Clear
8:53 AM 62.1 °F 46.0 °F 56% 29.97 in 10.0 mi NE 13.8 mph - N/A   Clear
9:53 AM 66.0 °F 46.9 °F 50% 29.98 in 10.0 mi ENE 13.8 mph - N/A   Clear
10:53 AM 66.0 °F 46.9 °F 50% 29.98 in 10.0 mi ENE 15.0 mph - N/A   Clear
11:53 AM 70.0 °F 48.0 °F 46% 29.98 in 10.0 mi ENE 13.8 mph - N/A   Clear
12:53 PM 73.9 °F 48.9 °F 41% 29.96 in 10.0 mi ENE 12.7 mph 24.2 mph N/A   Clear
1:53 PM 77.0 °F 48.9 °F 37% 29.95 in 10.0 mi ENE 18.4 mph 25.3 mph N/A   Clear
3:53 PM 79.0 °F 48.9 °F 35% 29.93 in 10.0 mi East 15.0 mph 28.8 mph N/A   Clear
4:53 PM 79.0 °F 48.9 °F 35% 29.91 in 10.0 mi East 18.4 mph 26.5 mph N/A   Clear
5:53 PM 78.1 °F 50.0 °F 37% 29.91 in 10.0 mi East 17.3 mph 26.5 mph N/A   Clear
6:53 PM 75.9 °F 51.1 °F 42% 29.91 in 10.0 mi East 17.3 mph - N/A   Clear
7:53 PM 73.0 °F 52.0 °F 48% 29.93 in 10.0 mi East 17.3 mph - N/A   Clear
9:53 PM 66.9 °F 54.0 °F 63% 29.97 in 10.0 mi East 13.8 mph - N/A   Clear
10:53 PM 64.0 °F 54.0 °F 70% 29.99 in 10.0 mi ENE 11.5 mph - N/A   Clear
11:53 PM 62.1 °F 53.1 °F 72% 30.01 in 10.0 mi ENE 13.8 mph - N/A   Clear